Погода в Зырянке

Погода в Зырянке : погода сейчас, прогноз погоды и архив. Всё, что Вы хотите узнать о погоде в Зырянке!

Хотите узнать прогноз погоды в Зырянке? Тогда Вам сюда: Погода в Зырянке

Поиск расширенной информации на нашем сайте:

Полезная информация: Neverwinter online купить аб кач в neverwinter online neverwinter-diamonds.ru.

Другие новости

Новости СМИ2

Главная страница сайта

Новости сайта

03.07.2017

Напоминаем, что на нашем специализированном сайте Метеоцентр.Азия вы можете получить высокодетализированные автоматические прогнозы погоды по пунктам России, СНГ и мира в авиационном формате (включающие направление и скорость ветра, видимость, явления погоды, количество и форму облачности, нижнюю и верхнюю границу облачности).

Рекомендуем: 2016 следующий год какого животного кого

Погода в Зырянке - сегодня

Время (UTC), дата Ветер
(°,м/с) 
Видим.   Явления Облачность Т
(°С)
Тd
(°С)
f(%) Тe
(°С)
Pmin
(гПа)
dP
(гПа)
Po
(мм)
O2
(г/м3)
Тmin Tmax R s Состояние
почвы
00 20.02.18 340 (С) 20000 м  слаб. снег  10/10 1320 м 
[Sc]
-24 -27.2 75 -27  1009  -0.7  752  334           
03 20.02.18 330 (СЗ) 20000 м  {снег}  10/3 1500 м верхняя 
[Sc|Ci fib]
-22.1 -25.4 75 -22  1007.7  -1.2  751  331           
06 20.02.18 тихо ()   20000 м    10/0 верхняя 
[Ci fib]
-22.1 -25.4 75 -22  1007.8  0.1  752  331           
12 20.02.18 тихо ()   20000 м    ясно 
-29.2 -32.2 75 -29  1008.5  0.2  752  341           
15 20.02.18 тихо ()   20000 м    ясно 
-31.8 -34.8 75 -32  1008.8  0.3  752  345           
18 20.02.18 110 (В) 20000 м    ясно 
-33.7 -36.6 75 -35  1009.7  0.8  753  348           
03 21.02.18 340 (С) 20000 м    10/0 верхняя 
[Ci fib]
-25.4 -27.8 80 -26  1011.6  0.4  754  337           
06 21.02.18 360 (С) 20000 м    4/0 верхняя 
[Ci fib]
-24.8 -28 75 -28  1012.6  0.9  755  336           
09 21.02.18 350 (С) 20000 м    ясно 
-29.1 -31.6 79 -30  1013.9  1.3  756  343    -24       
12 21.02.18 320 (СЗ) 20000 м    ясно 
-33 -35.4 79 -34  1015.5  1.5  757  349           
15 21.02.18 тихо ()   20000 м    ясно 
-35.6 -37.7 81 -36  1016.4  0.9  758  353           
18 21.02.18 310 (СЗ) 20000 м    ясно 
-37.4 -39.5 81 -38  1017.5  1.1  758  356           
00 22.02.18 340 (С) 20000 м    3/0 верхняя 
[Ci fib]
-31.2 -34.3 74 -35  1020.2  1.7  761  348           
03 22.02.18 350 (С) 20000 м    10/0 средняя, верхняя 
[Ac trans|Ci fib]
-26.9 -30 75 -28  1021  0.9  761  342           
09 22.02.18 тихо ()   20000 м  слаб. снег  10/8 1140 м верхняя 
[Sc|Cs]
-26 -28.4 80 -26  1023.7  763  342    -25  0.0     
18 22.02.18 тихо ()   20000 м  слаб. снег  10/4 1000 м средняя 
[Sc|As op]
-24.3 -26.8 80 -24  1027  1.1  766  340           
21 22.02.18 тихо ()   20000 м  слаб. снег  10/4 1000 м средняя, верхняя 
[Sc|Ac trans|Cs]
-25.5 -28 80 -26  1028.6  1.6  767  343  -26    0.2  71  неравномерный
сухой снег
100% 
03 23.02.18 150 (ЮВ) 20000 м  слаб. снег  3/0 средняя 
[Ac trans]
-22.2 -26.3 69 -23  1030.2  0.6  768  339           
06 23.02.18 тихо ()   20000 м    ясно 
-21.7 -25.7 70 -22  1031.1  0.9  769  338           
09 23.02.18 тихо ()   20000 м    ясно 
-29.7 -32.2 79 -30  1032.8  1.4  770  350    -21.7  0.0     
12 23.02.18 тихо ()   20000 м    ясно 
-35 -37.4 79 -35  1034  771  358           
15 23.02.18 тихо ()   20000 м    ясно 
-35.6 -37.7 81 -36  1034.2  0.2  771  359           
18 23.02.18 320 (СЗ) 20000 м    ясно 
-31.8 -34.1 80 -38  1034.7  0.7  771  354           
00 24.02.18 350 (С) 20000 м    10/0 средняя, верхняя 
[Ac trans|Ci fib]
-30.3 -32.8 79 -36  1035.7  0.2  772  352           
03 24.02.18 330 (СЗ) 20000 м    10/0 верхняя 
[Ci fib]
-26.2 -28.7 79 -34  1035.4  -0.2  772  346           
Время (UTC), дата Ветер
(°,м/с) 
Видим.   Явления Облачность Т
(°С)
Тd
(°С)
f(%) Тe
(°С)
Pmin
(гПа)
dP
(гПа)
Po
(мм)
O2
(г/м3)
Тmin Tmax R s Состояние
почвы

Для получения пояснительной информации подведите курсор к названию столбца.

ПОГОДА в Зырянке - архив

Всё, что Вы хотите узнать о погоде в Зырянке - удобно и подробно!

Выберите нужную дату (начиная с 1 января 2015* года) и нажмите кнопку "Найти".
Будут отображены архивные сводки погоды по пункту Зырянка, начиная с указанной даты.


Отображать данные в формате CSV (для использования в таблицах Excel)


Внимание! Наш архив погоды предназначен исключительно для личного некоммерческого использования в познавательных целях. Если Вам необходимы официальные справки о состоянии погоды (для производственных, юридических, коммерческих и т.п. целей), обращайтесь в органы Росгидромета.

*Примечание: данная дата относится к архиву по метеостанциям СССР (Россия, СНГ, Балтия).
Архив по метеостанциям Зарубежной Европы и Азии (кроме Китая) хранится 10 дней, по другим регионам земного шара (Китай, Африка, Америка, Австралия, Океания) - 1 день.

Зырянка - район местоположения метеостанции


Название, широта, долгота, высота метеостанции:
Зырянка 65.7°ш. 150.9°д. 43 м над ур. моря [Российская Федерация]

Дополнительная информация

В oтличие oт бoльшинства пoгoдных сайтoв мы публикуем пoдрoбную метеoинфoрмацию в детальнoм прoфессиoнальнoм фoрмате.

Характеристики температуры и влажнoсти вoздуха измеряются на высoте 2 м в тени вдали oт зданий и деревьев.
Скoрoсть ветра измеряется на высoте 10 м (на урoвне рoста челoвека скoрoсть ветра ниже в 1.5-2 раза). Если метеoстанция нахoдится в гoрoде или в лесу, тo скoрoсть ветра занижена на 2-4 м/с пo сравнению с oткрытым местoм. Скoрoсть ветра над акватoриями крупных рек и oзёр, а также на вершинах хoлмoв на 2-5 м/с выше, чем в oбычных услoвиях.
Атмoсфернoе давление в разных тoчках местнoсти мoжет значительнo oтличаться oт давления на метеoстанции, в зависимoсти oт услoвий рельефа (при пoдъёме на 10 м давление пoнижается примернo на 1 мм рт.ст.).